Location: Albuquerque Trailhead
(34.7934°N, 106.3736°W)
Time: 13:31:27
(UTC+00:00)

DNEPR-1 R/B - Pass Details

Date: 20 June 2021
Orbit: 588 x 1334 km, 64.6° (Epoch: 30 July)

Event Time Altitude Azimuth Distance (km) Brightness Sun altitude
Rises 04:58:31 0° 335° (NNW) 2,822 8.3 -24.3°
Reaches altitude 10° 05:00:44 10° 339° (NNW) 1,932 7.1 -24.5°
Enters shadow 05:04:44 56° 47° (NE) 742 3.9 -24.9°
